Location: Aressy
(43.2833°N, 0.3167°W)
Time: 18:49:12
(UTC+00:00)

Cosmos 1703 - Pass Details

Date: 28 January 2021
Orbit: 524 x 538 km, 82.5° (Epoch: 02 March)

Event Time Altitude Azimuth Distance (km) Brightness Sun altitude
Rises 17:39:39 0° 178° (S) 2,646 7.0 -6.2°
Reaches altitude 10° 17:41:48 10° 175° (S) 1,761 6.1 -6.5°
Maximum altitude 17:45:36 60° 95° (E) 608 3.3 -7.2°
Drops below altitude 10° 17:49:26 10° 16° (NNE) 1,774 5.6 -7.9°
Sets 17:51:36 0° 12° (NNE) 2,669 6.5 -8.2°
